TimeCDT,TemperatureF,Dew PointF,Humidity,Sea Level PressureIn,VisibilityMPH,Wind Direction,Wind SpeedMPH,Gust SpeedMPH,PrecipitationIn,Events,Conditions,WindDirDegrees,DateUTC
12:53 AM,64.0,57.9,80,29.92,10.0,NNW,10.4,-,N/A,,Clear,330,2013-09-20 05:53:00
1:53 AM,61.0,54.0,78,29.96,10.0,NNW,10.4,-,N/A,,Clear,340,2013-09-20 06:53:00
2:53 AM,61.0,54.0,78,29.98,10.0,NNW,6.9,-,N/A,,Mostly Cloudy,330,2013-09-20 07:53:00
3:53 AM,60.1,54.0,80,29.97,10.0,NNW,8.1,-,N/A,,Overcast,330,2013-09-20 08:53:00
4:53 AM,57.9,54.0,87,29.99,10.0,NW,6.9,-,N/A,,Clear,320,2013-09-20 09:53:00
5:53 AM,57.0,53.1,87,30.01,10.0,NW,5.8,-,N/A,,Clear,310,2013-09-20 10:53:00
6:53 AM,57.0,52.0,83,30.02,10.0,NNW,6.9,-,N/A,,Clear,330,2013-09-20 11:53:00
7:53 AM,57.0,53.1,87,30.05,10.0,NW,8.1,-,N/A,,Clear,320,2013-09-20 12:53:00
8:53 AM,57.9,51.1,78,30.06,10.0,NNW,10.4,-,N/A,,Clear,330,2013-09-20 13:53:00
9:53 AM,60.1,50.0,69,30.06,10.0,NNW,10.4,-,N/A,,Clear,330,2013-09-20 14:53:00
10:53 AM,64.0,50.0,60,30.06,10.0,NNW,11.5,-,N/A,,Clear,340,2013-09-20 15:53:00
11:53 AM,66.0,46.9,50,30.05,10.0,NNW,17.3,21.9,N/A,,Clear,340,2013-09-20 16:53:00
12:53 PM,66.0,48.0,52,30.04,10.0,NNW,16.1,21.9,N/A,,Clear,340,2013-09-20 17:53:00
1:53 PM,68.0,48.9,50,30.02,10.0,NNW,10.4,-,N/A,,Clear,330,2013-09-20 18:53:00
2:53 PM,69.1,46.9,45,29.99,10.0,NW,8.1,-,N/A,,Clear,320,2013-09-20 19:53:00
3:53 PM,69.1,48.0,47,29.97,10.0,WNW,10.4,-,N/A,,Clear,300,2013-09-20 20:53:00
4:53 PM,70.0,48.0,46,29.96,10.0,WNW,10.4,-,N/A,,Clear,290,2013-09-20 21:53:00
5:53 PM,69.1,48.0,47,29.97,10.0,NW,8.1,-,N/A,,Clear,310,2013-09-20 22:53:00
6:53 PM,64.9,51.1,61,29.97,10.0,NW,4.6,-,N/A,,Clear,310,2013-09-20 23:53:00
7:53 PM,57.9,51.1,78,29.98,10.0,WNW,4.6,-,N/A,,Clear,290,2013-09-21 00:53:00
8:53 PM,55.0,51.1,86,29.99,10.0,Calm,Calm,-,N/A,,Clear,0,2013-09-21 01:53:00
9:53 PM,55.0,50.0,83,30.00,10.0,Calm,Calm,-,N/A,,Clear,0,2013-09-21 02:53:00
10:53 PM,51.1,48.0,89,30.00,10.0,Calm,Calm,-,N/A,,Clear,0,2013-09-21 03:53:00
11:53 PM,48.9,46.9,93,30.01,10.0,NNW,3.5,-,N/A,,Clear,330,2013-09-21 04:53:00